CAPE
0 0 0 0 0 0 0 0 0 0 0 0 0 0 0 0 0 0 0 0 0 0 0 0 2 5 10 10 12 14 11 26 13 19 29 32 32 27
0 0 0 0 0 0 0 0 0 0 0 0 0 0 0 0 0 0 0 0 0 0 0 2 5 6 8 9 6 11 21 25 27 31 40 40 27 18
0 0 0 0 0 0 0 0 0 0 0 0 0 0 0 0 0 0 0 0 0 0 0 3 4 4 8 6 9 11 11 12 15 38 20 27 44 29
0 0 0 0 0 0 0 0 0 0 0 0 0 0 0 0 0 0 0 0 0 0 0 0 1 1 2 3 7 8 7 14 12 16 12 7 18 12
0 0 0 0 0 0 0 0 0 0 0 0 0 0 0 0 0 0 0 0 0 0 0 0 0 0 1 3 9 9 5 7 7 7 9 12 6 23
0 0 0 0 0 0 0 0 0 0 0 0 0 0 0 0 0 0 0 0 0 0 0 0 0 0 0 0 0 0 0 0 0 4 7 13 16 19
0 0 0 0 0 0 0 0 0 0 0 0 0 0 0 0 0 0 0 0 0 0 0 0 0 0 0 0 0 0 0 0 6 6 4 19 15 21
0 0 0 0 0 0 0 0 0 0 0 0 0 0 0 0 0 0 0 0 0 0 0 0 0 0 0 0 0 0 1 3 6 7 2 15 13 14
0 0 0 0 0 0 0 0 0 0 0 4 0 0 0 0 0 0 0 0 0 0 0 0 0 0 0 0 0 0 0 1 4 3 1 1 1 10
0 0 0 0 0 0 0 0 0 0 0 0 0 0 0 0 0 0 0 0 0 0 0 0 0 0 0 0 0 0 0 0 0 2 4 3 0 1
0 0 0 0 0 0 0 0 0 0 0 0 0 4 8 7 1 0 0 0 0 0 0 0 0 0 0 0 0 0 0 0 0 0 0 2 5 0
0 0 0 0 0 1 2 0 0 0 0 0 0 0 0 0 0 0 0 0 0 0 0 0 0 0 0 0 0 0 0 0 0 0 0 1 2 1
0 0 0 0 1 7 6 0 0 1 0 0 0 0 0 0 0 0 0 0 0 0 0 0 0 0 0 0 0 0 0 0 0 0 0 0 0 3
0 0 0 0 6 2 0 0 1 1 0 0 0 0 0 0 0 0 0 0 0 0 0 0 0 0 1 0 1 0 0 0 0 0 0 0 0 2
0 0 5 0 0 0 0 0 0 0 0 0 0 0 0 0 0 1 0 0 0 0 0 0 0 0 0 1 1 0 0 0 0 0 0 0 0 0
0 0 0 0 0 0 0 0 0 0 0 0 0 0 0 0 0 0 1 0 1 0 0 0 0 0 0 0 0 0 0 0 0 0 0 0 0 0
0 0 0 0 0 0 0 0 0 0 0 0 1 1 1 0 0 0 1 1 0 0 0 0 0 0 0 0 1 0 0 0 0 0 0 0 0 0
0 0 0 0 0 0 0 0 0 0 0 1 0 1 1 1 1 0 0 1 2 0 0 0 0 1 0 0 0 0 0 0 0 0 0 0 0 0
0 0 0 0 0 0 0 0 0 0 0 1 1 0 0 0 0 0 0 1 1 0 0 0 0 0 0 0 0 0 0 0 0 0 0 1 0 0
0 0 0 0 0 0 0 0 0 0 0 0 0 0 0 0 0 0 1 1 0 0 0 0 0 0 0 0 0 0 0 0 0 0 0 0 0 0
0 0 0 0 0 0 0 0 0 0 0 0 0 0 0 0 0 0 1 2 1 1 1 0 0 0 0 0 0 0 0 0 0 0 0 0 1 1
0 0 0 0 0 0 0 0 0 0 0 0 0 0 0 1 0 0 1 1 1 1 0 0 0 0 0 0 1 1 0 0 0 0 0 0 1 0
0 0 0 0 0 0 0 0 0 0 0 1 1 0 0 1 1 2 1 0 0 0 1 0 0 0 0 0 1 0 0 0 0 0 0 0 0 0
CIN
-0 -0 -0 -0 -0 -0 -0 -0 -0 -0 -0 -0 -0 -0 -0 -0 -0 -0 -0 -0 -0 -0 -0 -0 -1 -1 -1 -2 -2 -2 -1 -1 -2 -2 -1 -0 -2 -1
-0 -0 -0 -0 -0 -0 -0 -0 -0 -0 -0 -0 -0 -0 -0 -0 -0 -0 -0 -0 -0 -0 -0 -1 -1 -1 -1 -1 -2 -2 -2 -2 -1 -1 -1 -1 -1 -1
-0 -0 -0 -0 -0 -0 -0 -0 -0 -0 -0 -0 -0 -0 -0 -0 -0 -0 -0 -0 -0 -0 -0 -1 -1 -1 -1 -2 -2 -1 -1 -1 -2 -1 -2 -1 -0 -1
-0 -0 -0 -0 -0 -0 -0 -0 -0 -0 -0 -0 -0 -0 -0 -0 -0 -0 -0 -0 -0 -0 -0 -1 -1 -1 -1 -1 -1 -0 -1 -1 -1 -1 -2 -1 -2 -1
-0 -0 -0 -0 -0 -0 -0 -0 -0 -0 -0 -0 -0 -0 -0 -0 -0 -0 -0 -0 -0 -0 -0 -0 -0 -0 -1 -1 -1 -1 -1 -1 -1 -1 -1 -1 -1 -1
-0 -0 -0 -0 -0 -0 -0 -0 -0 -0 -0 -0 -0 -0 -0 -0 -0 -0 -0 -0 -0 -0 -0 -0 -0 -0 -0 -1 -1 -0 -0 -0 -1 -0 -1 -1 -1 -1
-0 -0 -0 -0 -0 -0 -0 -0 -0 -0 -0 -0 -0 -0 -0 -0 -0 -0 -0 -0 -0 -0 -0 -0 -0 -0 -0 -0 -0 -0 -0 -0 -1 -2 -2 -1 -1 -1
-0 -0 -0 -0 -0 -0 -0 -0 -0 -0 -0 -0 -0 -0 -0 -0 -0 -0 -0 -0 -0 -0 -0 -1 -0 -0 -0 -0 -0 -0 -0 -1 -0 -1 -1 -1 -1 -0
-0 -0 -0 -0 -0 -0 -0 -0 -0 -0 -1 -4 -4 -0 -0 -0 -0 -0 -0 -0 -0 -0 -0 -0 -0 -0 -0 -0 -0 -0 -0 -1 -0 -0 -1 -2 -3 -1
-0 -0 -0 -0 -0 -0 -0 -0 -0 -0 -0 -0 -0 -0 -0 -0 -0 -0 -0 -0 -0 -0 -0 -0 -0 -0 -0 -0 -0 -0 -0 -0 -0 -2 -1 -2 -1 -3
-0 -0 -0 -0 -0 -0 -0 -0 -0 -0 -0 -0 -0 -1 -1 -0 -1 -0 -0 -0 -0 -0 -0 -0 -0 -0 -0 -0 -0 -0 -0 -0 -0 -0 -0 -1 -1 -3
-0 -0 -0 -0 -0 -1 -2 -1 -0 -0 -0 -0 -0 -0 -0 -0 -0 -0 -0 -0 -0 -0 -0 -0 -0 -0 -0 -0 -0 -0 -0 -0 -0 -0 -0 -1 -1 -1
-0 -0 -0 -0 -1 -1 -1 -0 -0 -1 -2 -0 -0 -0 -0 -0 -0 -0 -0 -0 -0 -0 -0 -0 -0 -0 -0 -0 -0 -0 -0 -0 -0 -0 -0 -0 -1 -0
-0 -0 -0 -2 -1 -1 -0 -0 -1 -1 -0 -0 -0 -0 -0 -0 -0 -0 -0 -0 -0 -0 -0 -0 -0 -0 -0 -0 -0 -0 -0 -0 -0 -0 -0 -0 -0 -1
-0 -0 -1 -1 -0 -0 -0 -0 -0 -0 -0 -0 -0 -0 -0 -0 -0 -0 -0 -0 -0 -0 -0 -0 -0 -0 -0 -0 -0 -0 -0 -0 -0 -0 -0 -0 -0 -0
-0 -0 -0 -0 -0 -0 -0 -0 -0 -0 -0 -0 -0 -0 -0 -0 -0 -0 -0 -0 -0 -0 -0 -0 -0 -0 -0 -0 -0 -0 -0 -0 -0 -0 -0 -0 -0 -0
-0 -0 -0 -0 -0 -0 -0 -0 -0 -0 -0 -0 -0 -0 -0 -0 -0 -0 -0 -0 -0 -0 -0 -0 -0 -0 -0 -0 -0 -0 -0 -0 -0 -0 -0 -0 -0 -0
-0 -0 -0 -0 -0 -0 -0 -0 -0 -0 -0 -0 -0 -0 -0 -0 -0 -0 -0 -0 -0 -0 -0 -0 -0 -0 -0 -0 -0 -0 -0 -0 -0 -0 -0 -0 -1 -0
-0 -0 -0 -0 -0 -0 -0 -0 -0 -0 -0 -0 -0 -0 -0 -0 -0 -0 -0 -0 -0 -0 -0 -0 -0 -0 -0 -0 -0 -0 -0 -0 -0 -0 -0 -0 -0 -0
-0 -0 -0 -0 -0 -0 -0 -0 -0 -0 -0 -0 -0 -0 -0 -0 -0 -0 -0 -0 -0 -0 -0 -0 -0 -0 -0 -0 -0 -0 -0 -0 -0 -0 -0 -0 -0 -0
-0 -0 -0 -0 -0 -0 -0 -0 -0 -0 -0 -0 -0 -0 -0 -0 -0 -0 -0 -0 -0 -0 -0 -0 -0 -0 -0 -0 -0 -0 -0 -0 -0 -0 -0 -0 -0 -0
-0 -0 -0 -0 -0 -0 -0 -0 -0 -0 -0 -0 -0 -0 -0 -0 -0 -0 -0 -0 -0 -0 -0 -0 -0 -0 -0 -0 -0 -0 -0 -0 -0 -0 -0 -0 -0 -0
-0 -0 -0 -0 -0 -0 -0 -0 -0 -0 -0 -0 -0 -0 -0 -0 -0 -0 -0 -0 -0 -0 -1 -0 -0 -0 -0 -0 -0 -0 -0 -0 -0 -0 -0 -0 -0 -0
Wind_Speed
14 14 17 19 21 23 24 26 30 38 39 33 33 29 39 39 39 41 41 41 45 46 46 46 46 46 47 48 48 48 48 48 48 50 50 50 50 50
15 16 18 20 22 24 26 27 29 33 39 34 36 39 39 40 40 42 42 45 45 45 45 45 47 47 47 46 46 46 47 47 47 46 47 47 47 47
15 17 20 21 21 25 29 29 30 32 39 40 38 39 41 42 43 42 43 44 42 43 47 46 46 45 44 45 45 44 44 43 43 43 43 44 43 44
18 20 24 26 27 28 31 32 33 34 38 45 41 41 41 42 43 45 44 43 43 44 45 45 44 42 42 41 41 40 39 40 42 43 43 44 44 44
21 24 26 29 31 32 32 33 34 34 35 40 44 40 41 42 45 44 44 44 43 43 43 42 41 40 39 38 38 40 42 42 43 45 46 46 44 45
25 29 28 28 31 32 33 33 34 35 36 40 43 44 44 44 44 48 49 45 45 42 40 39 38 36 36 39 40 40 40 40 42 42 42 44 44 45
27 27 29 30 29 30 32 33 33 37 40 42 44 45 46 47 49 49 49 48 45 41 41 37 35 34 36 37 38 37 37 36 36 39 43 46 48 47
28 29 29 31 31 32 33 34 35 38 40 42 44 46 47 48 48 48 47 48 50 36 36 39 39 39 37 36 35 36 36 36 38 39 41 45 46 48
28 29 31 31 33 34 34 35 35 37 38 42 46 46 48 47 47 47 45 43 42 40 40 42 39 40 38 35 37 38 38 38 38 38 39 41 44 47
28 29 31 33 34 35 35 37 38 37 39 39 41 43 43 41 39 39 40 40 37 38 38 42 41 40 39 37 38 37 35 34 35 36 38 41 45 49
29 30 32 34 36 37 38 40 41 41 38 40 40 40 39 37 38 38 36 36 40 40 39 39 37 41 41 39 33 32 33 33 34 37 38 43 47 48
30 32 35 37 37 37 39 42 44 44 43 40 38 37 36 33 32 30 31 34 38 42 34 35 40 41 42 34 33 34 34 33 34 32 28 37 49 46
34 36 36 37 37 39 41 42 43 41 39 39 37 34 33 32 29 28 28 30 35 35 35 37 38 38 36 41 39 39 37 37 33 30 22 28 44 46
36 36 37 38 40 42 42 40 39 39 36 34 33 34 33 33 32 31 32 31 29 32 35 33 32 31 32 26 41 43 39 36 33 25 17 20 37 42
35 37 40 39 41 39 39 38 35 32 31 31 32 32 31 31 32 32 32 32 31 30 29 26 21 16 16 18 30 46 50 39 21 15 20 27 35 40
37 36 37 39 39 37 34 31 28 27 28 28 28 28 30 31 32 33 34 34 33 31 28 16 11 12 16 17 22 25 22 22 19 24 27 30 32 34
35 38 40 39 36 32 29 26 26 25 25 24 26 28 30 31 31 29 28 26 19 15 20 14 13 12 14 21 21 22 21 20 18 16 17 24 21 21
37 38 36 32 29 26 25 6 10 13 19 22 23 26 28 26 23 20 17 12 12 14 16 18 18 19 18 17 12 17 19 17 17 17 16 25 27 13
34 32 28 25 21 6 3 2 4 10 15 18 22 22 19 17 14 12 11 11 12 13 15 15 14 12 16 20 17 14 20 19 19 17 23 27 36 39
27 24 13 5 4 5 4 2 5 11 14 17 18 16 13 13 12 12 11 11 12 12 13 12 11 12 13 20 25 23 14 13 14 20 18 21 22 29
14 4 4 4 4 1 1 3 8 9 11 14 14 13 12 13 12 11 11 13 13 12 13 16 16 21 19 17 18 22 15 18 14 19 30 44 43 41
4 4 5 4 2 3 3 5 7 7 9 12 13 13 13 13 12 13 12 12 13 13 14 14 15 16 14 16 23 25 17 26 28 24 19 15 20 30
5 6 7 7 7 8 7 6 6 6 8 10 13 14 14 13 12 12 12 12 13 14 13 15 16 14 15 13 15 15 18 22 22 17 17 14 10 13
Wind_Direction
312 313 316 318 321 322 323 323 321 320 320 325 324 326 323 324 324 322 321 319 316 315 314 313 312 311 309 308 306 305 305 303 302 301 299 297 296 293
311 314 316 319 320 321 321 322 321 318 317 322 321 321 323 323 323 322 321 318 317 315 314 313 312 311 309 308 308 307 305 304 303 301 300 299 297 295
310 312 313 316 320 320 319 320 319 318 314 317 319 322 322 322 322 322 321 319 318 317 315 314 313 312 311 311 309 308 307 305 304 303 302 300 298 296
313 315 314 315 315 316 316 316 317 317 316 315 319 320 321 322 321 320 320 320 318 317 316 315 314 314 313 312 311 309 308 307 304 302 301 299 297 295
315 314 317 315 314 314 315 316 317 317 317 316 317 321 321 323 322 321 320 319 319 318 317 317 316 315 314 314 312 310 308 306 304 301 297 296 296 293
318 317 317 316 315 315 317 317 318 318 319 318 318 318 320 322 321 320 319 321 320 320 318 317 317 317 316 314 312 311 309 308 306 303 300 295 293 290
316 319 319 318 319 319 319 320 320 319 318 318 318 319 320 320 320 321 319 320 320 320 318 319 320 318 316 316 314 313 311 309 307 305 301 295 289 288
319 321 322 322 322 321 320 320 321 320 320 319 319 318 319 320 321 320 319 319 319 324 322 318 318 316 316 316 316 314 311 309 307 305 301 296 289 285
325 325 325 326 325 324 323 322 322 321 321 320 318 319 319 320 320 319 319 319 319 320 320 316 319 316 317 317 316 314 311 309 307 305 302 298 292 284
328 328 327 327 327 326 325 323 323 323 322 321 319 319 319 320 320 321 321 320 321 321 321 317 320 318 318 318 317 316 314 312 309 307 304 300 293 284
331 330 329 329 328 327 325 323 323 323 324 323 322 322 323 324 323 324 323 324 321 322 324 321 323 321 320 320 321 319 316 314 311 308 307 301 290 282
332 332 330 329 328 328 326 325 324 325 325 326 327 326 326 327 327 327 327 324 323 323 331 326 324 326 324 325 325 321 318 316 314 312 309 296 278 280
331 330 331 330 329 328 327 326 325 327 329 328 329 330 332 332 333 332 329 326 324 321 324 325 324 323 321 320 319 319 318 317 317 315 307 254 266 272
331 331 331 330 329 329 328 328 329 330 332 333 335 334 335 335 335 333 330 327 324 320 324 324 323 324 323 312 302 316 318 319 319 316 305 251 255 262
333 332 330 331 330 330 331 331 334 337 339 339 338 339 341 340 337 335 334 332 329 328 328 327 321 293 303 288 273 286 301 319 320 272 255 251 255 268
333 335 334 333 332 332 335 339 343 346 346 346 347 347 346 344 341 340 338 338 335 335 337 331 290 302 288 288 273 274 273 264 265 262 259 257 254 251
337 335 334 335 336 340 345 350 353 357 357 358 355 353 351 348 347 347 346 345 339 308 284 294 330 314 282 268 269 269 268 267 268 269 263 257 251 249
337 337 339 343 348 353 359 304 26 19 11 5 2 359 355 355 354 353 352 337 305 291 288 287 287 286 282 269 257 267 271 275 278 275 267 258 257 287
344 346 354 0 14 236 232 265 297 18 14 13 7 3 2 0 350 340 335 317 301 295 291 291 292 297 293 287 283 267 269 275 276 278 264 260 262 264
359 9 34 220 215 232 251 319 11 19 20 15 12 9 4 358 341 330 324 323 314 310 308 310 307 301 290 286 287 289 298 295 295 277 279 320 314 270
44 202 155 181 214 210 347 19 23 21 20 16 14 12 2 360 348 340 330 317 316 325 315 302 300 291 287 288 287 290 315 345 317 286 303 309 311 309
149 132 102 100 81 49 24 23 20 22 19 18 15 8 1 357 334 327 336 338 337 331 319 312 306 300 303 297 291 293 316 353 351 347 339 325 330 327
120 84 68 55 48 38 33 19 22 15 13 11 10 4 356 348 342 339 338 342 348 347 333 314 310 311 306 312 309 328 341 354 356 349 352 349 312 278